Wind_Speed
12 11 9 7 6 4 2 2 1 0 0 2 3 4 4 4 4 4 5 6 6 6 6 7 7 6 7 7 8 9 9 10 10 10 11 11 12 12 13 13 13 13 14 14 14 14 14 14 14
13 13 11 9 6 4 2 2 2 1 2 4 4 5 5 5 6 6 6 7 8 7 7 8 8 7 9 9 9 10 10 11 11 11 12 12 13 13 13 14 14 14 15 14 14 14 14 15 15
14 13 12 9 7 5 3 3 4 3 4 4 5 7 8 6 6 7 7 8 9 8 8 9 9 9 11 10 10 11 12 12 12 13 13 13 14 14 14 15 15 15 15 15 15 15 15 16 16
14 14 12 10 7 6 5 5 3 4 5 5 7 9 9 8 7 8 9 10 10 9 9 9 10 11 10 11 12 13 13 14 14 14 14 14 14 15 15 15 16 16 15 16 16 17 17 17 17
16 14 12 9 7 5 4 5 4 5 6 7 7 8 9 9 9 9 9 10 10 10 10 11 12 12 12 13 14 14 14 15 15 15 15 15 15 16 16 16 16 16 16 16 17 17 18 18 18
15 14 12 9 7 6 4 3 4 5 6 8 9 9 10 10 9 8 10 11 12 12 13 13 14 14 15 15 16 16 16 16 16 16 16 16 16 17 17 17 17 17 17 18 18 18 19 19 19
15 13 11 9 8 7 5 5 6 4 7 9 9 10 12 11 10 10 11 11 12 13 14 14 14 15 16 16 17 16 16 16 16 16 16 16 17 17 18 18 18 19 19 19 19 19 20 20 20
15 14 12 10 9 7 6 5 5 6 9 9 9 12 12 13 13 13 12 12 13 14 14 14 15 16 16 16 17 17 18 18 17 17 17 17 17 18 18 19 19 19 19 20 20 20 20 21 21
14 14 13 11 10 7 8 6 6 8 10 12 12 12 13 14 14 14 13 14 14 14 15 14 15 16 17 17 18 18 19 19 18 18 18 18 18 19 19 19 19 20 20 21 21 21 21 21 22
14 14 12 11 10 9 9 8 8 10 11 13 14 14 14 16 17 15 15 15 15 16 16 16 16 17 18 18 19 19 19 20 19 19 20 20 20 20 20 19 20 21 21 21 22 22 22 22 23
13 13 12 11 9 10 10 9 9 11 11 13 14 16 16 18 17 17 16 16 17 17 18 19 18 18 18 19 20 20 21 21 21 21 22 22 22 21 21 21 21 21 22 22 23 23 23 23 23
11 11 12 11 9 9 9 10 11 12 12 14 15 16 17 18 18 17 18 17 18 18 19 19 19 19 19 19 20 21 22 22 22 23 23 23 22 22 22 22 22 22 22 23 23 23 23 23 24
10 9 9 10 8 9 9 11 11 13 14 15 16 17 17 18 19 20 20 19 19 20 20 20 20 21 21 21 22 22 22 22 22 23 23 22 22 22 23 23 23 22 22 23 23 23 24 25 25
9 9 9 9 8 7 8 10 12 13 14 15 17 17 18 19 20 21 21 20 20 20 19 20 21 21 21 22 23 23 23 23 23 22 23 23 23 23 23 23 23 23 23 23 24 25 25 25 25
9 10 10 9 8 8 9 11 12 13 14 16 17 18 19 19 21 22 22 22 21 20 20 21 21 22 22 22 22 23 22 22 23 24 24 24 24 24 23 22 23 23 24 24 25 25 25 26 26
6 8 8 7 7 8 10 11 12 14 15 17 18 19 19 19 20 22 22 22 22 21 22 22 22 23 24 24 23 23 21 22 24 25 25 24 24 23 22 23 23 24 25 25 25 25 25 25 25
6 6 7 7 8 10 11 11 12 14 16 17 19 19 18 19 20 21 22 22 22 23 23 23 24 25 25 25 24 23 24 25 25 26 25 24 24 24 24 24 25 25 26 25 26 26 26 26 26
4 6 7 8 8 10 11 12 12 14 15 17 19 19 19 20 21 22 22 22 22 23 24 24 24 24 25 25 25 25 25 26 26 25 24 24 24 25 25 24 24 25 25 26 26 26 26 26 26
4 6 8 8 8 10 12 14 14 15 16 17 18 19 20 21 21 22 22 22 23 24 25 24 24 24 25 25 25 26 26 26 25 24 24 24 24 24 24 24 24 24 25 25 26 25 25 26 26
5 7 9 9 10 12 13 15 15 15 16 17 19 20 21 21 22 23 22 23 24 25 25 25 25 25 25 25 26 26 26 25 25 25 24 24 25 24 25 24 24 25 25 25 25 25 25 25 25
8 9 10 10 11 12 15 16 15 15 16 18 19 20 21 22 23 23 23 24 24 25 26 26 25 25 26 26 26 25 25 25 25 25 26 25 24 24 23 23 23 24 24 24 24 25 24 24 25
9 10 11 11 12 11 13 15 15 16 16 17 19 20 23 23 24 24 26 26 26 27 27 27 26 27 27 27 26 25 26 26 25 25 25 24 24 24 24 23 24 25 24 24 24 24 24 24 24
9 10 10 11 12 13 15 16 16 16 17 18 19 21 23 24 25 26 27 27 28 28 27 27 27 28 28 28 27 26 26 25 25 24 24 23 23 23 23 23 24 25 24 23 23 23 23 23 23
10 9 10 11 13 14 14 16 16 17 19 19 20 22 22 24 26 28 27 27 27 27 27 27 27 27 27 27 26 25 25 25 24 24 24 24 22 22 23 24 23 22 22 22 22 22 23 23 24
10 10 10 10 13 14 15 16 16 17 17 19 20 22 24 25 26 27 26 26 27 27 27 27 27 26 26 25 24 23 23 23 23 23 23 22 22 22 23 23 22 21 22 21 22 22 23 23 23
11 11 11 12 13 14 14 15 16 17 18 20 22 23 25 25 25 27 27 26 27 26 26 26 26 25 24 24 23 23 22 21 21 22 21 21 20 21 21 21 20 20 21 21 21 22 22 23 23
12 12 13 12 13 13 14 16 17 18 19 21 22 24 24 25 27 26 26 27 27 26 25 25 26 25 24 23 22 22 21 20 21 21 20 20 19 18 18 18 19 20 21 21 21 21 22 22 23
12 12 12 13 14 14 15 17 18 19 20 22 23 24 25 27 28 27 26 27 27 25 25 25 25 23 23 22 22 21 20 20 19 18 18 18 18 17 18 19 20 20 21 22 21 21 22 22 23
13 13 13 14 15 17 18 18 19 21 22 23 25 26 26 26 26 27 27 27 26 25 25 24 21 21 21 22 22 22 21 20 18 18 17 18 18 17 18 19 20 21 21 21 21 22 22 22 23
13 13 14 15 16 17 19 20 20 21 23 24 25 27 27 26 26 26 26 25 25 25 25 23 23 22 22 22 21 20 19 18 17 17 17 18 18 18 18 18 19 20 20 21 21 22 22 23 23
Wind_Direction
192 188 187 185 190 184 164 141 199 221 308 298 308 334 329 329 326 318 308 308 314 320 328 331 333 332 329 326 324 320 318 314 311 309 307 307 308 309 309 307 305 302 301 299 297 296 294 291 289
194 192 192 192 192 186 148 190 224 242 281 277 293 315 319 320 324 323 312 307 309 314 321 322 325 322 320 318 316 312 312 311 309 308 306 306 306 305 305 305 303 300 298 296 294 293 293 292 289
194 192 194 200 203 200 178 224 254 273 292 287 313 318 322 325 324 322 315 310 309 306 312 313 314 313 311 312 312 311 309 308 307 307 305 304 303 304 303 301 300 298 296 295 293 292 292 291 289
196 194 196 200 198 185 183 206 232 280 303 309 316 314 320 319 320 316 313 312 312 307 308 310 311 308 304 308 308 306 306 305 305 304 303 302 301 301 302 300 298 297 295 293 292 291 291 292 289
200 198 199 199 194 190 192 217 248 285 296 302 305 307 312 308 312 311 311 309 307 304 304 306 305 305 301 301 301 299 300 300 302 303 302 301 299 298 299 299 296 295 294 292 291 290 290 290 288
200 198 196 197 188 193 199 231 255 278 288 293 303 306 307 306 306 312 310 308 303 297 297 299 302 302 300 299 297 295 296 298 299 299 300 300 297 295 295 296 294 293 293 293 291 289 288 288 286
197 196 193 195 188 191 196 227 245 279 292 295 297 308 307 305 307 312 309 307 305 299 293 294 298 300 300 298 298 294 295 298 296 296 297 299 295 294 294 293 293 292 292 292 291 288 286 285 285
195 197 197 197 192 197 208 219 254 282 289 290 301 308 306 306 306 312 315 310 306 301 296 292 296 299 299 297 298 295 296 298 294 295 296 298 296 294 292 292 292 292 293 293 292 288 285 284 283
195 198 197 198 202 213 225 238 267 278 289 294 293 301 303 307 308 311 311 308 307 304 302 296 294 297 298 297 298 297 296 296 293 294 294 297 297 295 293 293 293 292 293 293 291 288 286 284 283
197 202 204 207 210 227 236 249 265 277 284 286 289 297 303 307 305 307 307 305 307 307 303 299 295 294 296 296 295 295 296 296 295 294 293 295 296 295 293 294 293 293 291 291 292 290 287 285 283
205 207 208 204 214 227 237 250 264 276 280 282 293 300 305 305 306 308 308 307 307 306 304 301 297 297 297 296 294 294 294 295 295 294 293 295 295 294 292 291 292 293 293 291 291 290 289 288 286
210 210 215 216 222 233 250 257 265 276 284 290 296 303 308 308 305 306 306 306 305 304 304 302 300 299 299 298 294 293 293 293 293 292 292 294 295 293 293 291 292 293 292 292 291 290 290 289 287
214 215 224 226 232 240 255 263 268 276 285 295 300 303 306 308 304 305 305 306 306 303 302 303 302 302 297 297 297 293 291 293 295 295 294 293 295 294 294 293 293 292 291 291 292 290 289 290 289
214 221 225 230 243 242 257 265 269 277 287 294 298 299 303 309 307 307 306 307 307 306 305 305 304 302 299 298 296 295 291 293 296 296 296 295 294 293 293 292 291 290 291 291 291 290 289 289 288
221 224 228 238 245 257 265 269 273 276 283 289 294 299 302 304 309 311 307 306 304 304 305 306 303 302 300 298 298 295 295 295 297 295 294 295 294 295 293 292 291 292 293 292 293 290 289 289 288
217 220 224 233 240 249 259 266 269 274 279 285 292 297 300 307 308 311 309 304 302 304 306 304 303 302 302 298 295 294 295 295 295 296 293 294 297 297 294 292 292 294 296 296 293 294 291 289 289
212 222 222 223 237 248 261 266 271 276 278 284 293 300 304 310 310 310 309 307 306 307 308 305 304 300 301 297 293 293 294 295 295 297 294 294 295 295 293 293 294 294 295 296 296 295 295 293 291
220 228 229 228 238 251 261 268 268 276 282 287 295 301 304 307 308 308 310 312 310 308 307 307 306 301 301 299 297 296 295 295 295 296 295 294 295 295 294 293 295 295 296 297 298 296 294 294 294
255 247 237 232 244 254 260 264 270 276 283 288 293 297 300 304 304 306 309 310 310 308 307 307 305 304 301 300 300 297 296 295 294 296 296 296 296 296 295 295 297 298 299 299 298 298 297 295 295
274 260 247 239 254 264 268 269 275 279 285 289 291 296 299 302 303 304 304 306 307 305 305 306 305 304 303 301 299 297 298 296 295 296 296 296 294 293 295 295 296 297 299 300 300 300 299 297 295
273 276 269 256 258 267 272 277 284 290 294 293 295 299 302 302 302 305 303 303 304 306 303 303 301 302 302 300 299 298 297 295 293 291 293 295 294 294 294 295 296 297 299 299 299 301 300 299 297
281 281 278 270 266 268 272 279 289 291 294 294 298 302 304 302 301 303 304 302 303 303 302 300 300 301 301 298 296 295 296 296 295 293 293 294 294 293 293 294 295 298 299 299 300 301 301 300 299
297 291 283 273 269 269 270 279 289 295 296 297 300 303 305 302 301 301 302 302 301 300 300 301 299 300 300 298 295 292 293 296 296 295 294 293 294 292 294 295 296 298 299 300 301 302 302 303 302
307 299 291 283 277 272 275 283 290 296 296 294 297 301 303 304 304 304 303 303 302 299 300 300 299 299 299 298 297 295 293 295 295 295 294 293 293 294 293 294 296 297 299 300 300 302 302 303 303
311 307 294 280 279 278 279 283 289 293 295 295 298 300 303 305 305 306 305 303 302 302 300 300 300 301 301 301 299 296 293 293 294 296 295 294 292 294 292 292 296 300 302 301 302 303 303 304 305
321 315 305 295 291 286 289 289 293 295 296 300 302 304 305 305 305 307 306 304 304 305 303 301 301 301 302 302 300 296 294 293 293 295 295 296 296 296 295 293 298 302 304 305 305 305 304 303 303
320 318 311 308 303 295 296 296 297 302 301 303 307 308 307 308 310 308 306 306 305 305 305 303 302 301 301 301 301 298 298 296 295 296 297 299 300 301 301 300 302 304 307 306 305 306 306 306 306
320 322 314 309 308 306 304 304 309 310 307 308 310 313 309 308 310 308 306 306 307 305 307 307 303 302 302 302 302 299 297 299 297 297 299 301 300 301 304 305 305 306 308 307 307 307 307 308 309
312 313 313 312 310 307 308 310 314 312 312 313 313 315 314 311 310 308 307 307 308 308 309 311 308 307 306 304 300 296 297 296 295 297 298 300 301 302 304 304 304 305 307 307 308 310 309 309 310
311 315 310 309 313 313 311 311 317 315 314 315 315 316 316 314 312 309 308 307 306 307 306 309 311 308 307 304 301 298 297 296 295 297 297 299 301 303 305 306 306 307 309 310 310 311 312 312 312
Height
5895 5896 5898 5900 5901 5901 5901 5901 5901 5901 5901 5901 5901 5902 5902 5903 5904 5905 5903 5901 5901 5900 5899 5898 5897 5896 5896 5895 5894 5893 5892 5891 5890 5889 5887 5886 5885 5883 5882 5881 5879 5878 5877 5876 5875 5873 5872 5871 5870
5893 5895 5897 5898 5899 5900 5901 5900 5900 5900 5900 5900 5900 5901 5900 5901 5902 5901 5900 5900 5899 5898 5898 5897 5896 5895 5894 5893 5893 5892 5891 5890 5888 5887 5886 5884 5883 5882 5880 5879 5877 5876 5875 5873 5872 5871 5870 5868 5867
5891 5893 5896 5896 5897 5899 5900 5899 5899 5898 5898 5899 5899 5900 5900 5900 5900 5899 5899 5898 5897 5896 5896 5895 5894 5893 5892 5892 5891 5890 5889 5888 5886 5885 5884 5882 5881 5880 5878 5877 5875 5874 5872 5871 5870 5868 5867 5866 5865
5889 5892 5894 5895 5896 5898 5898 5898 5897 5897 5897 5898 5899 5899 5899 5899 5899 5898 5897 5896 5895 5894 5894 5893 5892 5891 5890 5890 5889 5888 5887 5886 5884 5883 5881 5880 5879 5877 5876 5874 5873 5871 5870 5868 5867 5865 5864 5863 5861
5887 5890 5892 5893 5895 5896 5896 5897 5897 5896 5896 5896 5897 5897 5898 5898 5897 5896 5895 5895 5894 5893 5893 5892 5891 5890 5888 5887 5887 5885 5884 5883 5882 5880 5879 5877 5876 5874 5873 5871 5870 5868 5867 5865 5864 5862 5861 5859 5858
5886 5888 5890 5892 5893 5894 5895 5896 5896 5895 5895 5895 5895 5896 5896 5896 5895 5894 5893 5893 5892 5891 5891 5890 5888 5887 5886 5885 5884 5882 5881 5880 5879 5877 5876 5874 5872 5871 5869 5868 5866 5864 5863 5861 5860 5858 5857 5856 5854
5885 5887 5889 5890 5891 5892 5894 5893 5893 5893 5894 5894 5893 5893 5893 5893 5893 5892 5891 5891 5890 5889 5888 5886 5885 5884 5883 5882 5880 5879 5877 5876 5875 5874 5872 5870 5869 5867 5866 5864 5863 5861 5859 5857 5856 5854 5853 5851 5850
5883 5886 5887 5889 5890 5891 5892 5891 5892 5892 5892 5892 5891 5891 5891 5891 5890 5889 5888 5888 5887 5886 5884 5883 5882 5880 5879 5878 5877 5875 5874 5873 5871 5870 5868 5866 5865 5863 5862 5860 5859 5857 5855 5853 5851 5850 5848 5847 5845
5881 5885 5886 5887 5889 5889 5889 5889 5890 5891 5891 5890 5890 5890 5890 5889 5888 5887 5886 5886 5884 5883 5881 5880 5879 5877 5876 5874 5873 5872 5871 5869 5867 5866 5864 5862 5861 5859 5857 5856 5854 5852 5850 5848 5847 5845 5843 5842 5840
5880 5883 5885 5886 5887 5888 5888 5888 5889 5889 5889 5889 5889 5889 5889 5888 5886 5885 5884 5883 5881 5880 5878 5877 5876 5874 5872 5871 5870 5868 5867 5865 5863 5862 5860 5858 5856 5855 5853 5851 5849 5847 5846 5844 5842 5840 5838 5837 5835
5878 5881 5882 5883 5884 5885 5886 5887 5887 5887 5887 5887 5887 5887 5886 5885 5883 5882 5881 5880 5878 5876 5875 5873 5871 5870 5869 5867 5866 5864 5863 5861 5859 5857 5855 5854 5852 5850 5848 5846 5844 5842 5841 5839 5837 5835 5833 5831 5829
5877 5879 5880 5881 5882 5883 5884 5884 5885 5885 5885 5885 5884 5884 5884 5882 5881 5879 5878 5876 5875 5873 5871 5868 5867 5865 5864 5863 5861 5860 5858 5857 5855 5853 5851 5849 5847 5845 5843 5841 5839 5837 5835 5834 5832 5830 5828 5826 5824
5876 5877 5878 5879 5879 5880 5882 5882 5882 5882 5882 5882 5882 5882 5881 5879 5878 5876 5875 5873 5871 5868 5867 5864 5863 5861 5860 5858 5856 5854 5853 5852 5850 5848 5846 5844 5842 5840 5838 5836 5834 5832 5830 5828 5827 5824 5822 5820 5818
5874 5875 5876 5877 5878 5878 5879 5880 5880 5880 5879 5879 5879 5879 5877 5876 5875 5873 5871 5868 5866 5864 5862 5861 5859 5857 5855 5853 5851 5848 5847 5846 5844 5843 5841 5839 5837 5835 5833 5830 5828 5827 5825 5823 5821 5819 5817 5814 5812
5873 5874 5875 5875 5875 5876 5877 5878 5878 5877 5877 5877 5876 5875 5874 5873 5871 5869 5866 5863 5861 5859 5858 5856 5854 5853 5850 5848 5846 5843 5842 5841 5839 5838 5836 5833 5831 5829 5827 5825 5823 5821 5819 5816 5814 5812 5810 5808 5806
5872 5873 5873 5874 5874 5874 5876 5875 5875 5874 5874 5874 5873 5872 5871 5870 5868 5865 5861 5859 5857 5855 5853 5852 5850 5848 5845 5843 5841 5839 5837 5836 5834 5832 5830 5828 5825 5823 5821 5818 5816 5814 5812 5809 5807 5804 5802 5801 5799
5870 5871 5871 5872 5872 5872 5873 5873 5872 5871 5870 5870 5869 5868 5867 5866 5864 5862 5857 5854 5853 5851 5849 5847 5845 5843 5840 5838 5836 5834 5832 5831 5829 5826 5824 5822 5820 5818 5815 5813 5811 5808 5806 5804 5801 5799 5796 5794 5792
5869 5869 5869 5870 5870 5870 5870 5870 5869 5868 5867 5866 5865 5865 5864 5863 5860 5858 5854 5852 5849 5848 5846 5843 5840 5838 5836 5833 5831 5828 5827 5825 5823 5820 5818 5816 5814 5811 5809 5807 5805 5802 5800 5798 5795 5793 5790 5788 5786
5867 5868 5868 5868 5867 5867 5867 5867 5866 5865 5864 5863 5862 5861 5860 5858 5856 5854 5851 5849 5846 5844 5841 5839 5836 5833 5830 5828 5825 5823 5820 5818 5816 5814 5812 5810 5807 5805 5803 5800 5799 5796 5794 5792 5789 5786 5784 5781 5779
5866 5866 5866 5866 5865 5865 5864 5864 5863 5862 5861 5860 5858 5857 5856 5854 5853 5850 5848 5844 5841 5839 5836 5834 5831 5828 5825 5822 5820 5817 5815 5813 5810 5808 5806 5804 5802 5799 5797 5795 5793 5791 5788 5786 5783 5780 5777 5775 5772
5864 5863 5864 5864 5863 5862 5861 5860 5859 5859 5857 5856 5854 5853 5851 5850 5848 5845 5843 5840 5837 5834 5831 5828 5825 5822 5819 5816 5813 5811 5809 5806 5804 5802 5800 5798 5795 5793 5790 5788 5787 5784 5782 5779 5777 5774 5771 5768 5766
5862 5861 5860 5860 5860 5859 5859 5857 5856 5855 5854 5852 5851 5849 5847 5845 5843 5840 5837 5834 5831 5828 5825 5822 5820 5817 5813 5810 5807 5804 5802 5800 5798 5796 5794 5792 5789 5787 5784 5782 5780 5778 5775 5773 5770 5768 5765 5762 5759
5859 5858 5858 5857 5857 5856 5855 5854 5854 5852 5850 5849 5847 5845 5843 5839 5837 5834 5831 5828 5825 5822 5819 5816 5813 5810 5806 5803 5800 5798 5795 5793 5791 5790 5787 5786 5783 5781 5778 5776 5774 5771 5769 5766 5764 5761 5759 5756 5753
5856 5856 5855 5855 5854 5854 5852 5851 5850 5848 5847 5845 5843 5840 5837 5834 5831 5827 5824 5821 5818 5815 5812 5809 5806 5803 5799 5796 5793 5791 5789 5787 5785 5783 5781 5779 5777 5775 5772 5770 5768 5765 5762 5760 5758 5755 5752 5750 5747
5854 5854 5853 5852 5851 5850 5849 5847 5847 5844 5842 5841 5839 5836 5832 5829 5825 5821 5818 5815 5811 5808 5805 5802 5799 5796 5793 5790 5787 5785 5783 5781 5779 5777 5775 5773 5771 5769 5767 5764 5762 5759 5757 5754 5751 5749 5746 5743 5740
5851 5851 5850 5849 5848 5846 5845 5844 5843 5840 5838 5837 5834 5831 5827 5824 5820 5816 5811 5808 5804 5800 5798 5795 5792 5789 5787 5784 5781 5779 5776 5774 5773 5771 5769 5767 5765 5763 5760 5758 5756 5753 5751 5749 5746 5743 5740 5737 5734
5850 5848 5847 5846 5843 5843 5841 5840 5838 5836 5834 5832 5829 5826 5821 5818 5814 5810 5806 5802 5798 5794 5791 5788 5785 5783 5780 5778 5775 5773 5771 5769 5767 5765 5763 5761 5759 5757 5755 5753 5751 5748 5746 5743 5740 5737 5734 5731 5728
5848 5846 5845 5843 5840 5838 5837 5835 5834 5832 5829 5827 5824 5820 5815 5811 5807 5803 5799 5795 5792 5789 5785 5781 5778 5776 5774 5772 5769 5767 5765 5764 5762 5760 5758 5756 5754 5752 5750 5748 5745 5742 5740 5737 5734 5732 5728 5725 5722
5846 5844 5841 5840 5838 5835 5832 5833 5830 5827 5824 5821 5818 5813 5809 5805 5801 5797 5793 5789 5786 5782 5779 5775 5771 5769 5767 5765 5764 5762 5760 5758 5757 5756 5754 5752 5750 5748 5745 5743 5741 5738 5735 5732 5729 5726 5723 5720 5716
5843 5841 5839 5838 5835 5832 5829 5830 5825 5822 5818 5815 5811 5808 5804 5799 5795 5791 5787 5783 5780 5777 5774 5770 5766 5764 5762 5760 5758 5757 5755 5753 5752 5751 5749 5748 5746 5743 5741 5738 5736 5733 5730 5727 5724 5721 5718 5714 5710